Theta_e
314 315 322 326 318 312 315 317 315 317 316 320 320 321 319 322 322 321 331 332 335 337 333 333 333 333 333 332 331 331 331 329 327 325 325 332 330 325 328 324 318 312 313 320 318 317 316 316 317
316 321 324 323 313 313 313 315 317 316 319 320 320 321 322 324 329 330 329 334 333 335 333 334 334 333 333 332 331 331 331 328 325 322 323 323 321 321 325 321 315 312 310 314 316 315 314 314 313
321 321 322 313 310 313 314 314 314 316 319 318 319 321 322 324 327 328 327 334 337 334 333 335 334 333 333 332 331 329 331 328 324 322 322 321 319 323 324 319 316 315 312 309 310 311 311 310 310
321 323 319 311 316 315 314 313 315 317 318 318 319 319 324 324 325 328 332 334 335 335 333 335 335 333 333 332 331 329 331 329 324 324 324 324 322 325 325 323 322 321 320 315 309 308 307 307 306
321 321 314 313 315 316 314 314 317 315 316 317 318 317 325 326 326 331 333 334 334 335 335 334 335 333 332 331 330 328 330 330 327 328 328 328 326 326 326 326 326 325 324 322 318 310 306 304 304
321 317 313 314 314 316 316 317 316 314 316 318 318 318 321 327 326 332 334 334 334 337 337 334 334 334 333 330 330 329 331 331 330 329 330 329 329 328 328 327 326 327 326 321 320 319 311 305 303
316 311 315 313 313 316 316 317 314 313 315 315 318 315 322 326 326 330 332 330 333 333 334 335 334 333 333 333 332 332 333 332 332 331 331 329 329 329 329 328 328 327 326 323 320 320 320 315 304
318 311 314 312 312 315 316 317 316 316 315 315 317 313 317 324 323 328 329 328 328 330 330 330 334 333 334 334 333 332 333 333 332 332 331 330 329 329 329 328 327 326 325 323 322 320 319 319 319
315 309 312 315 313 316 316 315 317 316 316 315 316 316 316 319 321 321 320 321 322 324 325 323 325 331 332 333 333 333 332 333 333 333 332 331 330 329 330 328 327 326 324 323 322 321 321 319 319
315 309 315 315 314 313 315 316 317 316 315 313 314 315 315 317 317 317 316 317 318 319 321 321 323 323 321 323 335 337 334 333 333 333 332 332 331 330 332 329 327 326 325 324 323 322 321 321 320
314 311 313 315 317 316 315 316 316 314 313 315 314 315 314 315 316 316 315 315 314 315 316 317 318 319 320 323 328 335 334 334 332 331 330 331 331 332 332 330 329 327 325 324 323 322 321 321 320
313 314 316 316 316 317 315 316 316 316 316 317 317 314 314 314 315 315 315 315 315 314 313 313 314 314 316 320 324 330 333 332 331 331 331 331 331 332 332 330 328 329 328 326 325 323 322 321 321
314 315 316 317 316 317 317 316 316 316 316 317 316 314 314 314 314 314 314 313 313 313 312 312 312 312 312 316 322 325 330 332 333 331 330 330 331 331 330 328 327 330 326 326 325 324 322 323 322
316 315 316 316 316 316 315 315 316 316 316 315 315 315 313 313 313 313 313 313 313 313 313 312 312 312 312 312 321 327 331 333 330 331 329 331 330 329 329 329 328 324 323 323 322 323 322 323 323
315 313 312 314 315 315 315 313 312 315 314 314 314 314 313 312 312 313 313 313 313 313 313 313 312 312 312 312 320 329 327 328 328 328 328 328 329 329 330 327 326 327 326 322 321 321 323 323 322
314 312 314 314 313 314 313 313 313 314 314 313 313 313 312 312 312 312 312 313 313 313 313 312 312 312 312 313 323 326 326 326 326 327 327 327 327 327 325 323 322 321 321 321 322 322 321 320 318
311 313 313 313 312 312 312 313 313 313 313 313 312 312 312 312 312 312 312 312 313 313 312 312 312 312 312 316 324 325 324 324 322 322 324 323 323 322 322 321 321 322 321 321 319 318 317 315 314
313 313 313 314 314 312 312 310 310 312 311 313 313 313 312 312 313 312 311 312 312 312 312 312 312 312 313 318 324 323 323 322 322 322 322 323 322 321 321 320 319 319 318 316 314 312 310 307 306
313 313 315 314 314 313 311 311 311 312 311 311 312 312 312 313 312 311 310 311 311 311 312 312 312 312 315 319 320 322 321 321 321 320 321 323 321 320 320 318 317 317 312 307 305 303 302 302 303
312 314 312 312 313 311 312 311 310 311 312 313 314 314 313 312 311 310 310 310 310 311 311 312 312 313 315 318 320 321 321 320 320 320 321 321 319 318 317 315 311 306 304 302 300 299 298 298 300
313 313 313 315 313 311 311 311 311 311 312 314 315 316 315 314 313 310 310 311 310 310 311 312 313 314 316 319 320 320 320 319 319 319 320 318 317 315 312 306 303 301 300 299 298 297 297 297 296
314 312 314 314 315 314 312 316 313 312 311 310 314 314 314 313 311 311 310 310 310 310 311 312 314 316 318 319 319 319 319 318 318 320 318 315 313 309 303 301 300 299 298 298 297 297 296 295 295
315 313 313 314 313 314 313 313 312 313 313 313 315 315 316 313 313 312 311 311 311 309 311 312 315 317 318 317 318 318 319 318 318 318 315 312 305 301 299 298 298 297 297 297 296 295 295 294 294
311 313 312 311 312 315 314 314 314 314 315 313 314 315 316 315 312 311 311 310 310 309 311 312 315 316 316 316 316 317 319 318 318 315 310 305 301 299 298 298 297 297 296 296 295 295 294 293 293
312 313 314 316 314 317 312 313 317 314 312 313 314 317 315 313 311 309 310 309 309 309 310 312 314 315 315 315 315 315 317 318 318 313 306 301 299 298 298 297 296 296 296 296 295 293 293 292 292
312 312 315 317 316 315 311 315 315 311 314 313 315 314 314 312 309 308 309 309 309 308 309 311 313 313 313 313 314 316 317 317 314 308 302 300 300 299 298 297 296 296 296 295 294 293 292 292 291
311 314 313 315 298 310 315 313 312 309 309 310 311 310 310 310 310 309 309 309 308 308 308 310 312 312 312 313 313 315 315 313 309 302 299 298 298 298 297 296 296 295 295 293 292 292 291 291 290
311 311 314 311 314 314 315 314 318 313 311 310 308 308 308 309 308 308 308 308 308 307 307 309 311 312 312 313 314 314 313 309 303 299 298 297 297 297 297 296 295 295 294 292 292 291 290 290 289
312 313 313 314 312 315 313 316 310 314 312 311 309 313 311 309 309 309 308 307 307 306 305 307 311 311 312 313 314 313 311 304 299 298 297 297 297 296 296 295 294 294 292 292 291 290 290 289 289
311 313 312 315 314 311 313 320 310 311 310 310 313 315 312 310 310 309 308 307 306 305 304 306 310 312 312 312 312 311 306 300 299 297 297 296 296 295 295 294 294 292 291 291 290 289 289 289 289
Wind_Speed
2 1 1 2 4 5 2 1 1 1 4 10 15 15 11 7 2 4 10 8 8 11 13 12 12 13 13 12 11 11 10 11 10 11 10 10 10 13 13 15 16 17 15 11 11 11 10 10 10
2 1 1 3 5 4 3 3 4 3 16 24 20 16 11 4 8 12 7 9 8 11 12 12 12 12 11 11 9 9 9 9 9 9 9 8 9 10 12 15 15 17 17 14 13 12 11 10 9
3 3 3 4 4 4 5 4 6 10 20 4 6 11 5 3 8 9 8 12 11 10 14 12 12 12 11 10 9 8 8 8 7 8 7 7 7 9 11 13 14 16 18 16 14 14 13 11 10
2 3 5 5 3 1 7 6 7 7 5 7 16 8 7 4 5 11 11 14 12 11 14 13 13 13 12 11 9 8 7 6 6 5 5 7 7 8 10 12 14 15 15 16 15 14 13 11 9
5 5 5 4 3 3 1 9 13 4 4 8 5 4 7 12 14 14 13 13 12 13 13 12 12 12 11 11 9 7 6 6 5 5 6 6 7 8 9 11 12 13 13 14 14 14 13 11 9
4 3 5 2 2 2 3 10 9 5 8 9 11 10 7 12 12 15 16 14 14 15 13 12 13 13 13 11 10 8 7 6 5 4 5 5 6 6 6 6 8 10 10 10 11 11 12 12 11
6 4 4 4 4 3 4 8 10 8 9 4 14 5 10 15 13 15 14 13 16 17 17 17 14 14 13 13 12 10 9 8 6 5 4 3 3 3 4 5 8 9 11 11 9 9 10 11 10
4 5 3 3 6 4 5 5 8 11 4 10 8 7 8 21 19 17 16 14 14 16 14 16 18 18 15 14 14 13 11 10 8 6 5 4 3 2 1 4 8 11 15 12 13 11 10 11 10
3 4 1 0 6 4 8 4 5 7 10 5 5 9 9 23 21 19 17 16 15 15 15 13 15 18 18 18 17 16 14 12 10 9 7 5 5 4 4 6 6 6 10 10 12 14 15 13 11
4 4 4 2 3 5 11 7 9 6 8 4 8 12 19 22 21 20 19 17 16 16 15 15 14 14 13 14 17 16 15 16 13 11 10 9 8 7 9 8 5 4 6 6 8 10 12 13 12
3 4 3 1 0 6 7 5 7 10 3 10 15 19 22 23 22 20 19 16 15 16 17 16 16 16 16 16 17 15 17 18 19 17 14 10 10 11 14 8 5 5 3 3 1 4 6 8 8
3 1 3 3 1 5 7 6 5 8 5 10 12 18 22 23 23 22 18 16 15 15 15 16 17 17 18 17 17 21 16 15 17 16 12 14 13 11 17 8 7 5 1 1 2 3 2 3 3
2 1 2 3 3 5 4 5 4 7 10 9 15 21 20 21 21 20 19 17 16 15 14 15 15 16 18 20 19 17 17 17 16 16 13 13 12 14 12 10 7 4 1 1 2 2 6 5 5
3 1 4 5 5 5 5 3 4 7 14 15 20 21 21 21 22 22 21 18 17 15 15 15 16 17 18 19 19 18 17 17 17 16 13 13 14 15 14 12 9 6 4 2 3 5 6 3 3
1 3 4 7 6 4 5 5 9 14 20 22 23 22 22 22 23 22 19 18 17 16 15 15 16 17 19 19 20 17 16 18 18 17 18 15 15 14 14 12 10 7 6 5 6 7 5 4 4
2 3 2 3 9 4 6 7 4 12 25 25 25 24 24 25 24 23 22 20 18 17 16 15 16 17 18 20 21 19 18 17 17 18 18 17 16 15 13 11 9 7 7 7 8 6 1 0 0
4 3 4 7 8 4 5 6 4 7 27 27 27 26 27 26 27 26 25 23 20 19 18 17 17 18 19 22 22 22 20 19 17 15 17 15 15 14 11 9 8 8 7 6 5 3 3 3 3
6 4 5 5 4 2 3 11 6 9 22 27 28 28 30 31 32 28 28 26 23 21 20 18 18 19 22 22 24 23 22 20 18 15 15 15 14 12 11 10 9 9 7 5 6 6 6 6 6
4 4 4 3 4 5 8 9 11 18 21 25 27 32 35 35 30 29 29 27 25 23 21 19 20 22 24 26 27 26 24 22 19 17 13 16 15 13 13 10 11 10 9 10 9 8 8 8 7
4 4 7 6 4 6 7 11 10 9 15 31 36 37 40 38 35 35 34 31 27 24 22 21 21 22 25 25 27 26 25 24 21 18 17 18 17 15 14 13 13 13 12 11 10 8 6 7 5
6 7 5 8 1 3 3 7 10 11 23 31 35 41 41 46 43 42 40 36 30 28 26 24 23 24 26 29 30 29 27 25 24 23 21 20 18 17 16 15 15 14 11 8 6 5 5 5 6
7 7 6 4 2 5 3 8 5 6 11 10 33 36 44 43 45 44 42 38 34 31 26 25 25 28 29 31 30 29 30 30 27 25 23 21 21 21 20 17 14 11 8 6 5 4 2 3 3
7 4 4 2 3 2 3 4 6 4 8 15 28 31 39 41 47 48 47 40 35 31 30 28 29 30 31 31 29 30 30 27 27 26 25 26 26 23 20 15 12 9 7 5 3 3 4 4 5
5 5 6 4 3 4 9 8 5 7 12 8 15 21 29 36 43 46 47 42 36 33 32 31 32 32 32 31 31 30 30 29 30 30 30 30 28 24 19 15 12 9 5 3 2 2 3 5 7
4 7 2 3 1 8 2 5 14 9 10 11 15 23 16 27 38 43 48 45 40 38 36 36 36 36 34 33 32 32 31 29 29 31 33 32 28 23 19 15 12 8 5 3 2 2 4 6 8
8 8 6 7 5 5 1 7 6 13 22 16 28 30 22 21 31 40 45 46 42 39 38 39 38 38 36 35 34 33 31 31 31 33 33 29 24 21 18 15 12 9 6 4 3 1 2 4 7
6 8 4 1 1 1 6 8 7 10 10 16 25 18 18 23 29 36 43 43 40 38 39 40 39 39 38 36 34 34 33 32 34 34 30 26 23 21 18 15 12 10 7 6 4 2 1 3 6
6 8 2 2 2 6 6 6 8 5 12 14 13 18 19 23 30 35 40 40 38 37 38 39 39 39 37 37 36 35 34 33 35 34 31 28 24 21 19 17 15 12 10 8 6 4 1 3 5
3 5 4 5 5 5 2 7 7 13 12 12 14 29 27 25 32 37 39 38 36 36 37 39 41 41 40 39 38 37 35 36 37 34 31 27 24 22 20 18 16 14 12 10 8 6 2 2 4
1 4 7 5 6 6 3 18 5 5 6 11 18 21 23 27 29 34 36 36 36 37 39 41 42 42 42 40 39 37 37 40 38 34 31 28 25 23 21 20 18 17 15 12 10 8 5 4 5
Wind_Direction
245 317 55 81 59 67 20 75 177 71 44 81 88 105 110 76 87 172 148 187 173 172 165 161 158 149 144 136 128 119 107 95 85 77 81 82 60 55 53 42 44 45 53 74 67 66 70 75 80
167 103 40 90 86 75 295 299 116 138 130 108 90 92 58 61 92 131 140 152 157 166 168 165 162 159 154 144 131 118 106 92 82 79 80 74 57 53 45 41 46 45 49 53 51 53 56 62 73
119 64 59 87 106 149 166 220 159 132 147 153 101 80 83 80 130 147 158 161 162 163 168 168 165 164 163 155 145 135 125 112 103 94 89 81 70 69 52 42 45 48 48 49 49 49 51 59 72
133 64 66 79 81 269 158 193 174 138 134 107 118 71 87 126 130 145 153 160 168 164 173 172 172 169 170 169 163 153 143 132 116 106 99 94 83 75 57 49 45 45 45 46 47 51 55 59 69
71 66 57 65 29 87 85 169 153 134 109 114 137 132 100 116 146 147 157 160 175 160 162 171 175 177 178 178 172 167 159 147 129 114 109 98 88 81 58 52 45 39 35 35 40 45 51 58 63
72 73 65 145 203 157 159 168 152 136 120 120 110 115 139 146 164 149 164 170 171 163 172 182 185 187 181 180 180 179 170 159 137 118 117 107 102 88 62 54 40 31 28 29 33 41 45 48 49
100 78 168 144 178 165 193 131 144 147 131 95 141 107 148 167 173 165 179 174 183 181 181 188 197 197 196 196 193 186 184 180 176 159 140 118 120 111 88 59 48 33 36 34 41 52 54 56 54
86 90 95 184 181 215 204 116 131 154 118 130 162 167 177 180 179 180 185 188 190 192 197 194 191 198 205 205 205 202 204 197 196 196 191 180 182 160 94 92 71 41 31 32 31 58 55 53 50
94 64 95 242 160 214 180 133 143 144 139 130 148 160 171 180 182 186 189 191 193 195 200 200 197 203 209 208 211 211 207 210 207 205 209 214 217 206 175 144 112 87 57 36 26 45 40 46 48
81 98 195 198 201 211 175 166 149 152 139 115 132 146 158 180 188 191 192 194 196 201 206 210 211 215 219 212 207 209 215 220 218 219 223 225 217 200 187 175 180 146 104 65 36 41 32 30 39
119 159 193 225 17 177 168 181 174 146 224 199 189 172 173 182 192 201 204 206 210 211 213 215 219 219 217 217 203 202 208 211 212 217 221 220 223 202 200 187 208 220 151 121 76 63 72 42 33
98 158 174 161 162 149 162 161 177 191 216 212 218 188 183 191 201 208 213 216 220 221 219 220 221 224 225 219 212 211 207 212 210 213 212 213 217 209 193 211 235 202 163 18 17 20 50 31 19
113 247 251 198 175 189 174 193 193 224 217 209 184 187 192 196 202 205 214 219 223 221 220 220 221 220 217 215 209 205 207 205 201 207 201 209 205 196 208 224 236 194 281 220 313 319 335 327 345
175 237 255 240 220 205 201 223 206 232 195 184 185 192 198 201 202 205 209 215 221 222 222 222 219 218 216 215 203 199 205 201 207 204 202 208 206 209 205 218 215 226 218 214 288 303 298 290 303
342 313 320 231 207 221 193 282 234 224 194 192 196 201 203 205 209 214 216 216 219 224 228 226 222 215 211 204 202 190 191 199 206 207 208 208 205 211 204 226 211 202 210 227 234 248 251 268 267
34 50 353 286 162 200 155 262 249 210 199 203 204 207 210 214 217 217 217 218 219 221 225 224 218 210 203 202 192 189 191 197 200 204 206 209 216 219 213 211 210 203 194 210 225 226 259 136 26
355 234 217 313 201 135 172 258 268 222 199 208 211 214 217 219 221 221 220 219 218 220 221 221 219 207 199 190 191 188 191 196 194 205 210 204 196 195 196 197 198 183 177 167 179 193 184 147 148
206 224 244 233 221 203 206 257 257 205 200 215 218 223 225 227 231 225 221 219 217 217 217 215 214 207 197 190 183 186 189 192 199 203 204 192 192 190 188 188 183 177 176 177 158 135 122 127 135
163 194 236 253 231 169 233 255 259 230 226 234 234 231 231 233 233 226 223 222 219 217 216 214 210 204 196 191 186 186 187 187 190 194 199 183 186 187 184 194 189 177 164 148 135 125 119 129 132
232 254 259 272 247 185 258 253 261 238 233 238 241 242 238 232 227 221 221 221 221 221 215 211 206 200 194 190 187 188 188 189 191 193 193 182 185 188 188 182 164 155 158 148 140 133 126 128 160
228 211 233 232 14 253 307 264 245 256 244 247 249 251 250 237 226 218 218 219 218 218 215 210 204 199 191 186 187 188 190 193 195 196 192 185 186 182 173 164 160 157 156 153 149 134 122 124 123
240 202 195 201 139 243 152 282 270 250 254 234 250 249 247 239 230 223 218 217 218 218 212 209 203 197 192 192 194 198 199 197 194 199 193 188 178 173 166 166 164 164 163 159 156 131 113 79 89
229 161 190 191 186 351 230 293 256 244 260 257 255 251 250 242 237 225 220 221 219 214 212 207 202 198 196 196 198 198 204 205 201 195 190 181 171 169 169 169 170 173 164 155 121 82 77 68 43
136 81 47 50 77 263 226 197 197 210 227 255 260 261 254 245 236 228 220 216 214 210 208 206 202 198 199 199 200 203 208 208 201 193 186 178 173 173 174 176 178 175 166 139 103 78 62 52 38
107 103 290 315 332 243 334 232 250 260 239 226 256 275 266 238 228 221 213 209 209 210 208 206 203 200 201 203 203 204 210 212 208 198 187 181 179 179 181 182 182 184 172 161 124 72 44 34 23
201 165 167 220 214 257 344 237 249 234 259 263 259 269 270 236 226 221 214 210 209 210 209 207 204 202 203 206 208 208 207 208 205 197 190 188 187 187 188 187 190 190 187 186 159 128 38 30 14
203 211 176 61 82 6 223 276 287 252 277 271 261 265 250 229 224 219 210 211 212 213 213 211 207 206 207 210 208 206 204 205 201 194 191 191 192 194 192 193 197 200 201 191 180 199 350 16 12
167 161 89 24 244 250 262 258 229 219 238 252 266 248 235 227 220 214 210 213 214 218 216 211 210 211 210 211 209 207 205 202 198 195 194 197 200 200 200 202 204 207 203 199 201 211 239 9 9
152 192 185 147 166 211 283 254 218 210 216 225 240 254 246 230 221 217 216 218 220 219 215 213 211 211 211 211 210 207 205 199 198 200 201 204 206 206 208 210 211 211 208 207 211 216 231 327 353
303 249 177 154 215 239 220 256 187 195 227 221 256 264 260 244 231 222 221 220 219 218 214 213 211 211 212 212 211 209 204 199 201 203 205 208 209 210 213 215 216 214 213 215 219 225 240 276 312